Location: Buckeye Ditch
(40.9104°N, 122.9517°W)
Time: 17:36:53
(UTC+00:00)

SR - Pass Details

Date: 25 May 2025
Orbit: 570 x 855 km, 66.7° (Epoch: 13 June)

Event Time Altitude Azimuth Distance (km) Brightness Sun altitude
Rises 17:13:52 0° 315° (NW) 3,224 ? 48.2°
Reaches altitude 10° 17:16:58 10° 298° (WNW) 2,236 ? 48.7°
Maximum altitude 17:20:25 19° 255° (WSW) 1,656 ? 49.4°
Drops below altitude 10° 17:23:41 10° 211° (SSW) 2,095 ? 49.9°
Sets 17:26:29 0° 193° (SSW) 2,947 ? 50.5°
